Tracking 28790 objects as of 18-Apr-2024
HD Live streaming from Space Station
objects crossing your sky now

FENGYUN 1C DEB

Track FENGYUN 1C DEB now!
10-day predictions


NORAD ID: 30113
Int'l Code: 1999-025RS
Perigee: 760.4 km
Apogee: 828.6 km
Inclination: 99.1 °
Period: 100.6 minutes
Semi major axis: 7165 km
RCS: 0.032 m2 (small)
Launch date: May 10, 1999
Source: People's Republic of China (PRC)
Launch site: Taiyaun Space Center, China (TSC)

Note: This is SATELLITE DEBRIS
Your satellite tracking list
Your tracking list is empty




NASA's NSSDC Master Catalog

Two Line Element Set (TLE):
1 30113U 99025RS  24109.43643332  .00012514  00000-0  46793-2 0  9991
2 30113  99.0565 282.0760 0047591 337.9599  75.3756 14.31305129892483
Source of the keplerian elements: AFSPC